Find Local Weather

World > North America > United States > New York

Colden, New York Regional Weather

Lat: 42.64N, Lon: 78.69W
Wx Zone: NYZ085
Feedback
Expires:201810221900;;576249
ASUS41 KALY 221810
RWRALY

NEW YORK STATE HOURLY WEATHER ROUNDUP
NATIONAL WEATHER SERVICE ALBANY NY
200 PM EDT MON OCT 22 2018

NOTE: "FAIR" INDICATES FEW OR NO CLOUDS BELOW 12,000 FEET WITH NO
SIGNIFICANT WEATHER AND/OR NO OBSTRUCTIONS TO VISIBILITY.


NYZ001>004-010>016-019>021-085-221900-
WEST

  
CITY           SKY/WX    TMP DP  RH WIND       PRES   REMARKS
NIAGARA FALLS  PTSUNNY   50  39  66 SW13G22   30.03F                  
BUFFALO        PTSUNNY   49  36  61 SW12G22   30.04F                  
DUNKIRK        FAIR      52  31  44 W14G22    30.06F                  
JAMESTOWN      FAIR      47  29  49 SW14      30.06F                  
WELLSVILLE     CLOUDY    47  33  58 SW10      30.06F                  
ROCHESTER      PTSUNNY   49  38  65 W8        30.05F                  
PENN YAN       CLOUDY    51  33  50 VRB7      30.06F                  
$$

             KEY
       WCI = WIND CHILL INDEX
       VSB = VISIBILITY
       HX  = HEAT INDEX
$$
  

SKY/WX - Weather  TMP - Temperature  DP - Dew Point  RH - Relative Humidity
WIND - Wind Direction/Speed PRES - Barometric Pressure